Change the Weather History Date:

Wednesday, November 21, 2012

  Actual Average Record
Temperature  
Mean Temperature 61 °F -  
Max Temperature 69 °F 61 °F 69 °F (2012)
Min Temperature 53 °F 46 °F 33 °F (1998)
Degree Days  
Heating Degree Days 4    
Growing Degree Days 11 (Base 50)    
Moisture  
Dew Point 52 °F    
Average Humidity 77    
Maximum Humidity 100    
Minimum Humidity 34    
Precipitation  
Precipitation 0.00 in 0.07 in - ()
Sea Level Pressure  
Sea Level Pressure 30.06 in    
Wind  
Wind Speed 7 mph ()    
Max Wind Speed 13 mph    
Max Gust Speed -    
Visibility 6.6 miles    
Events      
Averages and records for this station are not official NWS values.
T = Trace of Precipitation, MM = Missing Value Source: Averaged Metar Reports

Daily Weather History Graph

Daily Weather History Graph

Search for Another Location

Airport or City:

Trip Planner

Search our weather history database for the weather conditions in past years. The results will help you decide how hot, cold, wet, or windy it might be!

Date:

Astronomy

Nov. 21, 2012 Rise Set
Actual Time 7:14 AM CET 5:05 PM CET
Civil Twilight 6:45 AM CET 5:34 PM CET
Nautical Twilight 6:12 AM CET 6:06 PM CET
Astronomical Twilight 5:40 AM CET 6:38 PM CET
Moon 1:11 PM CET (11/21) 12:18 AM CET (11/21)
Length of Visible Light 10h 49m
Length of Day
9h 50m
First Quarter, 59% of the Moon is Illuminated
Nov 21
First Quarter
Nov 28
Full
Dec 6
Last Quarter
Dec 13
New
Dec 20
First Quarter

Hourly Weather History & Observations

Time (CET) Temp. Dew Point Humidity Pressure Visibility Wind Dir Wind Speed Gust Speed Precip Events Conditions
12:15 AM 59.0 °F 55.4 °F 88% 30.01 in 6.2 mi NNW 5.8 mph - N/A   Scattered Clouds
12:45 AM 59.0 °F 57.2 °F 94% 30.01 in 6.2 mi North 9.2 mph - N/A   Scattered Clouds
12:55 AM 59.0 °F 57.2 °F 94% 30.01 in 6.2 mi North 9.2 mph - N/A   Scattered Clouds
1:00 AM 59 °F 57 °F 89% 30.02 in 6 mi North 9.2 mph - -   Partly Cloudy
1:15 AM 59.0 °F 55.4 °F 88% 30.01 in 6.2 mi NNW 6.9 mph - N/A   Scattered Clouds
1:45 AM 59.0 °F 55.4 °F 88% 30.01 in 6.2 mi East 5.8 mph - N/A   Partly Cloudy
1:55 AM 59.0 °F 55.4 °F 88% 30.01 in 6.2 mi East 5.8 mph - N/A   Partly Cloudy
2:15 AM 57.2 °F 55.4 °F 94% 30.01 in 6.2 mi NNW 4.6 mph - N/A   Partly Cloudy
2:45 AM 57.2 °F 55.4 °F 94% 30.01 in 6.2 mi NNW 6.9 mph - N/A   Partly Cloudy
2:55 AM 57.2 °F 55.4 °F 94% 30.01 in 6.2 mi NNW 6.9 mph - N/A   Partly Cloudy
3:15 AM 57.2 °F 55.4 °F 94% 30.01 in 6.2 mi NNW 6.9 mph - N/A   Partly Cloudy
3:45 AM 57.2 °F 55.4 °F 94% 30.01 in 6.2 mi NW 9.2 mph - N/A   Partly Cloudy
3:55 AM 57.2 °F 55.4 °F 94% 30.01 in 6.2 mi NW 9.2 mph - N/A   Partly Cloudy
4:00 AM 57 °F 55 °F 89% 30.02 in 6 mi NW 9.2 mph - -   Scattered Clouds
4:15 AM 57.2 °F 55.4 °F 94% 30.01 in 6.2 mi NNW 9.2 mph - N/A   Partly Cloudy
4:45 AM 55.4 °F 53.6 °F 94% 30.01 in 6.2 mi West 5.8 mph - N/A   Partly Cloudy
4:55 AM 55.4 °F 53.6 °F 94% 30.01 in 6.2 mi West 5.8 mph - N/A   Partly Cloudy
5:15 AM 55.4 °F 53.6 °F 94% 30.01 in 6.2 mi West 5.8 mph - N/A   Partly Cloudy
5:45 AM 55.4 °F 53.6 °F 94% 30.01 in 6.2 mi WNW 6.9 mph - N/A   Partly Cloudy
5:55 AM 55.4 °F 53.6 °F 94% 30.01 in 6.2 mi WNW 6.9 mph - N/A   Partly Cloudy
6:15 AM 55.4 °F 53.6 °F 94% 30.01 in 6.2 mi WNW 6.9 mph - N/A   Partly Cloudy
6:45 AM 53.6 °F 51.8 °F 94% 30.04 in 6.2 mi WNW 3.5 mph - N/A   Partly Cloudy
6:55 AM 53.6 °F 51.8 °F 94% 30.04 in 6.2 mi WNW 3.5 mph - N/A   Partly Cloudy
7:00 AM 53 °F 51 °F 92% 30.05 in 6 mi WNW 3.5 mph - -   Scattered Clouds
7:15 AM 53.6 °F 51.8 °F 94% 30.04 in 6.2 mi WNW 3.5 mph - N/A   Partly Cloudy
7:45 AM 53.6 °F 51.8 °F 94% 30.04 in 6.2 mi NW 5.8 mph - N/A   Partly Cloudy
7:55 AM 53.6 °F 51.8 °F 94% 30.04 in 6.2 mi NW 5.8 mph - N/A   Partly Cloudy
8:15 AM 53.6 °F 53.6 °F 100% 30.06 in 6.2 mi WNW 5.8 mph - N/A   Partly Cloudy
8:45 AM 55.4 °F 55.4 °F 100% 30.06 in 6.2 mi WNW 6.9 mph - N/A   Partly Cloudy
8:55 AM 55.4 °F 55.4 °F 100% 30.06 in 6.2 mi WNW 6.9 mph - N/A   Partly Cloudy
9:15 AM 57.2 °F 53.6 °F 88% 30.06 in 6.2 mi NW 4.6 mph - N/A   Partly Cloudy
9:45 AM 59.0 °F 53.6 °F 82% 30.06 in - WNW 6.9 mph - N/A   Clear
9:55 AM 59.0 °F 53.6 °F 82% 30.06 in - WNW 6.9 mph - N/A   Clear
10:00 AM 59 °F 54 °F 80% 30.08 in 16 mi WNW 6.9 mph - -   Scattered Clouds
10:15 AM 60.8 °F 55.4 °F 82% 30.06 in - West 6.9 mph - N/A   Clear
10:45 AM 62.6 °F 55.4 °F 77% 30.06 in 6.2 mi NW 9.2 mph - N/A   Partly Cloudy
10:55 AM 62.6 °F 55.4 °F 77% 30.06 in 6.2 mi NW 9.2 mph - N/A   Partly Cloudy
11:15 AM 64.4 °F 55.4 °F 73% 30.06 in 6.2 mi NW 9.2 mph - N/A   Partly Cloudy
11:45 AM 64.4 °F 55.4 °F 73% 30.06 in 6.2 mi West 9.2 mph - N/A   Partly Cloudy
11:55 AM 64.4 °F 55.4 °F 73% 30.06 in 6.2 mi West 9.2 mph - N/A   Partly Cloudy
12:15 PM 64.4 °F 55.4 °F 73% 30.06 in 6.2 mi WNW 8.1 mph - N/A   Partly Cloudy
12:45 PM 66.2 °F 50.0 °F 56% 30.06 in 6.2 mi NW 10.4 mph - N/A   Partly Cloudy
12:55 PM 66.2 °F 50.0 °F 56% 30.06 in 6.2 mi NW 10.4 mph - N/A   Partly Cloudy
1:00 PM 66 °F 50 °F 45% 30.08 in 16 mi NW 10.4 mph - -   Scattered Clouds
1:15 PM 66.2 °F 50.0 °F 56% 30.06 in 6.2 mi NW 10.4 mph - N/A   Partly Cloudy
1:45 PM 68.0 °F 44.6 °F 43% 30.04 in 6.2 mi NW 9.2 mph - N/A   Partly Cloudy
1:55 PM 68.0 °F 44.6 °F 43% 30.04 in 6.2 mi NW 9.2 mph - N/A   Partly Cloudy
2:15 PM 69.8 °F 44.6 °F 40% 30.04 in 6.2 mi WNW 9.2 mph - N/A   Partly Cloudy
2:45 PM 68.0 °F 42.8 °F 40% 30.04 in 6.2 mi NNW 11.5 mph - N/A   Partly Cloudy
2:55 PM 68.0 °F 42.8 °F 40% 30.04 in 6.2 mi NNW 11.5 mph - N/A   Partly Cloudy
3:15 PM 68.0 °F 41.0 °F 37% 30.04 in 6.2 mi NNW 12.7 mph - N/A   Partly Cloudy
3:45 PM 68.0 °F 44.6 °F 43% 30.06 in 6.2 mi NW 12.7 mph - N/A   Partly Cloudy
3:55 PM 68.0 °F 44.6 °F 43% 30.06 in 6.2 mi NW 12.7 mph - N/A   Partly Cloudy
4:00 PM 67 °F 45 °F 34% 30.07 in 16 mi NW 12.7 mph - -   Scattered Clouds
4:15 PM 66.2 °F 46.4 °F 49% 30.06 in 6.2 mi NNW 11.5 mph - N/A   Scattered Clouds
4:45 PM 64.4 °F 48.2 °F 56% 30.06 in 6.2 mi NNW 10.4 mph - N/A   Mostly Cloudy
4:55 PM 64.4 °F 48.2 °F 56% 30.06 in 6.2 mi NNW 10.4 mph - N/A   Partly Cloudy
5:15 PM 64.4 °F 48.2 °F 56% 30.06 in 6.2 mi NNW 9.2 mph - N/A   Partly Cloudy
5:45 PM 60.8 °F 46.4 °F 59% 30.06 in 6.2 mi NW 6.9 mph - N/A   Partly Cloudy
5:55 PM 60.8 °F 46.4 °F 59% 30.06 in 6.2 mi NW 6.9 mph - N/A   Partly Cloudy
6:15 PM 60.8 °F 46.4 °F 59% 30.06 in 6.2 mi WNW 4.6 mph - N/A   Partly Cloudy
6:45 PM 59.0 °F 46.4 °F 63% 30.09 in 6.2 mi NW 5.8 mph - N/A   Partly Cloudy
6:55 PM 59.0 °F 46.4 °F 63% 30.09 in 6.2 mi NW 5.8 mph - N/A   Partly Cloudy
7:00 PM 59 °F 47 °F 53% 30.10 in 12 mi NW 5.8 mph - -   Scattered Clouds
7:15 PM 59.0 °F 48.2 °F 67% 30.09 in 6.2 mi WNW 4.6 mph - N/A   Scattered Clouds
7:45 PM 59.0 °F 48.2 °F 67% 30.09 in 6.2 mi NW 5.8 mph - N/A   Partly Cloudy
7:55 PM 59.0 °F 48.2 °F 67% 30.09 in 6.2 mi NW 5.8 mph - N/A   Partly Cloudy
8:15 PM 57.2 °F 50.0 °F 77% 30.09 in 6.2 mi North 5.8 mph - N/A   Partly Cloudy
8:45 PM 57.2 °F 50.0 °F 77% 30.09 in 6.2 mi North 5.8 mph - N/A   Partly Cloudy
8:55 PM 57.2 °F 50.0 °F 77% 30.09 in 6.2 mi North 5.8 mph - N/A   Partly Cloudy
9:15 PM 57.2 °F 53.6 °F 88% 30.12 in 6.2 mi North 4.6 mph - N/A   Scattered Clouds
9:45 PM 57.2 °F 53.6 °F 88% 30.12 in 6.2 mi North 5.8 mph - N/A   Partly Cloudy
9:55 PM 57.2 °F 53.6 °F 88% 30.12 in 6.2 mi North 5.8 mph - N/A   Partly Cloudy
10:00 PM 57 °F 53 °F 82% 30.14 in 6 mi North 5.8 mph - -   Scattered Clouds
10:15 PM 57.2 °F 53.6 °F 88% 30.12 in 6.2 mi NNW 4.6 mph - N/A   Partly Cloudy
10:45 PM 55.4 °F 51.8 °F 88% 30.12 in 6.2 mi NW 6.9 mph - N/A   Partly Cloudy
10:55 PM 55.4 °F 51.8 °F 88% 30.12 in 6.2 mi NW 6.9 mph - N/A   Partly Cloudy
11:15 PM 55.4 °F 51.8 °F 88% 30.12 in 6.2 mi NW 6.9 mph - N/A   Partly Cloudy
11:45 PM 53.6 °F 51.8 °F 94% 30.12 in 6.2 mi NNW 5.8 mph - N/A   Partly Cloudy
11:55 PM 53.6 °F 51.8 °F 94% 30.12 in 6.2 mi NNW 5.8 mph - N/A   Partly Cloudy